Tracking 28799 objects as of 18-Apr-2024
HD Live streaming from Space Station
objects crossing your sky now

COSMOS 2251 DEB

Track COSMOS 2251 DEB now!
10-day predictions


NORAD ID: 35000
Int'l Code: 1993-036AFY
Perigee: 612.9 km
Apogee: 698.8 km
Inclination: 74.0 °
Period: 97.7 minutes
Semi major axis: 7026 km
RCS: 0.0114 m2 (small)
Launch date: June 16, 1993
Source: Commonwealth of Independent States (former USSR) (CIS)
Launch site: PLESETSK MISSILE AND SPACE COMPLEX (PKMTR)

Note: This is SATELLITE DEBRIS
Your satellite tracking list
Your tracking list is empty




NASA's NSSDC Master Catalog

Two Line Element Set (TLE):
1 35000U 93036AFY 24108.72882373  .00023653  00000-0  34955-2 0  9991
2 35000  74.0401 351.4352 0061091 218.0741 141.6108 14.73873705794443
Source of the keplerian elements: AFSPC